Location: Paddlesworth
(51.1000°N, 1.1333°E)
Time: 08:21:33
(UTC+00:00)

Cosmos 2341 Rocket - Pass Details

Date: 11 May 2021
Orbit: 968 x 1004 km, 82.9° (Epoch: 20 June)

Event Time Altitude Azimuth Distance (km) Brightness Sun altitude
Rises 21:51:29 0° 351° (N) 3,744 8.4 -15.9°
Reaches altitude 10° 21:54:05 10° 356° (N) 2,791 7.4 -16.1°
Maximum altitude 22:00:25 59° 75° (ENE) 1,153 4.3 -16.6°
Enters shadow 22:04:07 26° 146° (SE) 1,879 4.9 -16.9°
